Regional Weather Roundup
Issued by NWS

Home | Current Version | Previous Version | Text Only | Print | Product List | Glossary On
Versions: 1 2 3 4 5 6 7 8 9 10 11 12 13 14 15 16 17 18 19 20 21 22 23 24 25 26 27 28 29 30 31 32 33 34 35 36 37 38 39 40 41 42 43 44 45 46 47 48 49 50
627
ASUS44 KJAN 312203
RWRMS

MISSISSIPPI HOURLY WEATHER ROUNDUP
NATIONAL WEATHER SERVICE JACKSON MS
500 PM CDT FRI OCT 31 2014

NOTE: "FAIR: INDICATES FEW OR NO CLOUDS BELOW 12,000 FEET WITH NO
SIGNIFICANT WEATHER AND/OR OBSTRUCTIONS TO VISIBILITY.

MSZ001>002-007>008-010>013-018>021-025>028-034>036-312300-
NORTHWEST MISSISSIPPI

CITY           SKY/WX    TMP DP  RH WIND       PRES   REMARKS
CLARKSDALE     FAIR      55  45  67 NW8       30.19R
CLEVELAND      FAIR      58  44  58 N17G29    30.18R
GREENWOOD      CLOUDY    58  43  57 N14G23    30.15R
GREENVILLE     MOSUNNY   60  42  51 N15       30.16R
GRENADA        MOCLDY    55  41  58 N18       30.16R
OLIVE BRANCH   MOSUNNY   54  30  40 NW14G29   30.16R
OXFORD         FAIR      54  37  54 N15G22    30.16R
TUNICA         PTCLDY    55  36  47 NW23      30.19R
$$

MSZ003>006-009-014>017-022>024-029>033-037>039-312300-
NORTHEAST MISSISSIPPI

CITY           SKY/WX    TMP DP  RH WIND       PRES   REMARKS
COLUMBUS AFB   CLOUDY    58  44  61 NW24G32   30.07R
CORINTH        MOCLDY    54  37  54 NW16G26   30.12R
GOLDN TRIANGLE PTSUNNY   59  46  63 NW17G26   30.06R
STARKVILLE     FAIR      59  45  58 NW12G22   30.09R
TUPELO         CLOUDY    55  41  59 N12G21    30.11R
$$

MSZ040-058-312300-
CENTRAL MISSISSIPPI

CITY           SKY/WX    TMP DP  RH WIND       PRES   REMARKS
JACKSON INTL   MOSUNNY   62  44  51 NW24G31   30.12R
JACKSON HAWKNS PTSUNNY   62  44  51 N14G24    30.13R
MERIDIAN KEY   MOSUNNY   65  44  46 NW15G25   30.02R
MERIDIAN NAS   MOSUNNY   66  45  46 NW23G30   30.03R
RAYMOND        FAIR      63  57  82 N9G23     30.12R
VICKSBURG      MOSUNNY   66  44  45 N14G23    30.14R
$$

MSZ059>079-312300-
SOUTH MISSISSIPPI

CITY           SKY/WX    TMP DP  RH WIND       PRES   REMARKS
BROOKHAVEN     FAIR      64  46  52 NW13G18   30.10R
COLUMBIA         N/A     68  46  45 MISG      30.03R
HATTIESBURG    MOSUNNY   70  46  42 NW17G24   30.02R
MCCOMB         MOSUNNY   69  44  40 N18G25    30.07R
NATCHEZ        MOSUNNY   66  45  45 N14G25    30.13R
PINE BELT      MOSUNNY   68  45  42 NW14G21   30.04R
$$

MSZ080>082-312300-
COASTAL MISSISSIPPI

CITY           SKY/WX    TMP DP  RH WIND       PRES   REMARKS
BAY ST LOUIS   SUNNY     72  39  30 NW12G21   30.00R
BILOXI         SUNNY     73  45  37 NW15G25   29.98R
PASCAGOULA     SUNNY     72  44  36 NW10G18   29.96R
GULFPORT       SUNNY     73  44  35 NW16G22   29.98R
$$



USA.gov is the U.S. government's official web portal to all federal, state and local government web resources and services.